Location: San Martino di Castrozza
(46.2667°N, 11.8000°E)
Time: 08:03:14
(UTC+00:00)

IRAS Rocket - Pass Details

Date: 23 April 2021
Orbit: 848 x 877 km, 100.1° (Epoch: 07 May)

Event Time Altitude Azimuth Distance (km) Brightness Sun altitude
Rises 02:46:23 0° 157° (SSE) 3,406 7.2 -14.0°
Reaches altitude 10° 02:48:44 10° 155° (SSE) 2,477 6.5 -13.6°
Maximum altitude 02:54:13 76° 71° (ENE) 888 4.4 -12.8°
Drops below altitude 10° 02:59:47 10° 347° (NNW) 2,513 6.9 -12.0°
Sets 03:02:10 0° 346° (NNW) 3,459 7.6 -11.7°
